Lid_Strength_Index
3 3 4 4 4 4 4 5 6 7 6 4 4 4 5 5 6 5 6 8 8 8 7 7 6 5 4 4 3 3 2 3 3 4 5 5 6 6
2 3 3 3 4 4 5 5 5 6 7 4 4 3 5 6 7 8 7 10 10 9 8 8 7 6 5 5 4 3 3 3 4 5 5 5 6 6
2 2 3 3 3 4 4 5 5 5 7 5 4 3 4 5 7 9 9 9 9 10 10 9 8 8 7 6 5 4 4 4 4 5 5 6 6 7
6 6 7 7 8 8 8 8 6 6 6 7 5 5 5 4 4 5 9 10 10 10 9 9 8 8 8 7 6 5 5 5 5 5 6 6 6 7
8 9 9 9 11 10 10 10 10 10 9 9 9 8 8 9 9 10 11 11 10 10 9 9 9 8 8 8 7 6 7 6 6 6 7 7 7 7
10 10 10 10 11 11 11 11 11 11 10 10 10 10 9 10 12 13 11 13 12 11 11 11 10 9 8 8 8 8 7 7 7 7 8 7 7 7
11 11 11 13 13 12 12 12 12 11 11 11 10 9 9 9 10 9 10 10 11 11 11 11 11 11 10 9 10 9 7 7 7 8 8 8 8 8
12 12 12 13 11 11 10 10 9 10 10 10 10 11 10 10 10 10 11 11 12 10 12 11 12 12 11 10 9 8 7 7 7 8 8 8 8 8
13 12 12 12 11 10 10 9 10 9 9 10 11 11 11 10 11 11 11 11 12 10 12 12 11 11 10 10 7 6 6 6 7 8 8 8 9 9
12 11 11 11 10 10 10 10 10 9 9 9 9 9 10 10 10 11 11 11 10 10 12 13 12 12 13 11 7 6 6 7 7 8 8 8 8 9
11 11 11 11 10 10 11 11 11 11 10 10 10 10 10 10 10 11 12 13 12 12 12 14 14 14 13 12 11 6 6 7 7 8 8 8 8 9
11 12 12 11 11 11 11 12 12 12 12 12 11 11 11 11 11 11 12 14 13 12 10 11 12 11 11 11 12 9 7 7 8 8 8 8 9 11
13 13 12 12 11 11 11 12 13 12 12 12 11 11 11 11 11 11 11 11 12 10 8 8 9 10 10 11 14 12 9 8 9 9 8 8 9 11
14 13 13 13 13 12 13 13 13 13 12 13 13 12 12 12 12 11 10 10 10 11 9 9 9 10 11 11 14 12 11 10 10 10 10 9 10 10
14 14 14 14 14 14 14 14 13 13 13 14 14 13 12 12 11 12 9 10 9 10 10 9 9 10 10 11 11 13 13 12 11 12 12 13 13 13
16 15 16 15 15 15 15 14 14 14 14 14 14 13 11 12 12 12 12 11 11 11 11 11 10 10 11 11 11 13 13 15 15 15 16 16 15 14
18 15 16 16 16 16 15 15 15 15 15 15 14 14 13 12 13 13 12 11 13 14 13 12 12 12 13 13 15 15 16 16 15 16 17 18 17 16
17 17 18 17 18 18 17 16 16 16 16 15 14 14 14 14 14 13 13 13 13 14 13 12 12 12 14 15 14 16 16 17 16 16 17 18 18 16
18 18 19 19 19 18 18 17 17 17 16 15 15 15 14 13 13 13 13 14 14 14 15 14 13 13 16 19 16 13 17 17 17 18 17 17 18 17
21 20 20 20 20 19 18 18 17 17 16 16 15 15 15 14 14 15 15 16 15 15 15 15 15 15 15 17 18 16 14 16 17 18 19 17 15 13
22 21 21 21 20 20 19 18 18 18 18 17 16 16 16 15 15 15 15 17 16 16 16 16 15 14 14 14 17 17 16 14 15 16 17 18 18 17
22 22 22 21 21 20 19 19 17 17 17 17 17 16 15 15 15 16 16 15 16 16 16 15 14 14 15 16 18 18 17 15 14 14 14 15 17 19
22 21 21 21 21 21 20 18 18 17 18 17 17 16 16 16 16 15 15 15 15 16 16 16 15 15 16 17 17 18 18 17 16 17 17 13 14 14